TimePDT,TemperatureF,Dew PointF,Humidity,Sea Level PressureIn,VisibilityMPH,Wind Direction,Wind SpeedMPH,Gust SpeedMPH,PrecipitationIn,Events,Conditions,WindDirDegrees,DateUTC
12:53 AM,46.0,42.1,86,30.02,9.0,SE,3.5,-,N/A,,Clear,140,2014-03-12 07:53:00
1:53 AM,46.9,44.1,90,30.03,7.0,ESE,3.5,-,N/A,,Clear,110,2014-03-12 08:53:00
2:53 AM,46.0,43.0,89,30.03,7.0,Calm,Calm,-,N/A,,Clear,0,2014-03-12 09:53:00
3:53 AM,44.1,42.1,93,30.02,6.0,Calm,Calm,-,N/A,,Clear,0,2014-03-12 10:53:00
4:14 AM,43.0,41.0,93,30.02,2.0,NE,4.6,-,N/A,,Clear,50,2014-03-12 11:14:00
4:23 AM,42.1,39.9,92,30.02,5.0,ENE,6.9,-,N/A,,Clear,60,2014-03-12 11:23:00
4:53 AM,43.0,41.0,93,30.02,4.0,Calm,Calm,-,N/A,,Clear,0,2014-03-12 11:53:00
5:53 AM,42.1,41.0,96,30.04,3.0,Calm,Calm,-,N/A,,Partly Cloudy,0,2014-03-12 12:53:00
6:53 AM,45.0,43.0,93,30.05,6.0,West,5.8,-,N/A,,Partly Cloudy,280,2014-03-12 13:53:00
7:53 AM,48.0,41.0,77,30.07,9.0,West,4.6,-,N/A,,Partly Cloudy,270,2014-03-12 14:53:00
8:53 AM,51.1,39.9,66,30.09,10.0,NW,5.8,-,N/A,,Overcast,310,2014-03-12 15:53:00
9:53 AM,55.9,41.0,57,30.11,10.0,NW,8.1,-,N/A,,Partly Cloudy,310,2014-03-12 16:53:00
10:53 AM,61.0,42.1,50,30.10,6.0,Variable,3.5,-,N/A,,Haze,0,2014-03-12 17:53:00
11:53 AM,62.1,43.0,50,30.10,10.0,Calm,Calm,-,N/A,,Clear,0,2014-03-12 18:53:00
12:53 PM,66.0,43.0,43,30.08,10.0,West,4.6,-,N/A,,Partly Cloudy,260,2014-03-12 19:53:00
1:53 PM,68.0,33.1,27,30.06,10.0,NW,6.9,-,N/A,,Partly Cloudy,310,2014-03-12 20:53:00
2:50 PM,69.8,30.2,23,30.03,1.8,North,5.8,-,N/A,,Haze,350,2014-03-12 21:50:00
2:53 PM,70.0,30.9,24,30.04,2.0,NNW,8.1,-,N/A,,Haze,340,2014-03-12 21:53:00
3:01 PM,70.0,28.9,22,30.03,9.0,NW,6.9,-,N/A,,Partly Cloudy,320,2014-03-12 22:01:00
3:51 PM,71.6,30.2,22,30.02,1.8,North,9.2,-,N/A,,Haze,360,2014-03-12 22:51:00
3:53 PM,71.1,30.9,23,30.02,1.5,North,9.2,-,N/A,,Haze,350,2014-03-12 22:53:00
4:00 PM,71.1,32.0,24,30.01,3.0,North,8.1,-,N/A,,Haze,350,2014-03-12 23:00:00
4:53 PM,72.0,33.1,24,30.00,10.0,North,9.2,-,N/A,,Clear,350,2014-03-12 23:53:00
5:38 PM,71.1,37.0,29,29.97,1.8,NNW,15.0,25.3,N/A,,Haze,340,2014-03-13 00:38:00
5:46 PM,71.1,35.1,27,29.97,2.0,North,12.7,35.7,N/A,,Haze,350,2014-03-13 00:46:00
5:53 PM,71.1,36.0,28,29.98,5.0,North,12.7,-,N/A,,Haze,350,2014-03-13 00:53:00
6:53 PM,70.0,28.9,22,29.98,4.0,North,13.8,20.7,N/A,,Haze,350,2014-03-13 01:53:00
7:53 PM,66.9,28.9,24,29.98,10.0,NNW,9.2,-,N/A,,Clear,340,2014-03-13 02:53:00
8:53 PM,64.0,32.0,30,29.99,10.0,North,5.8,-,N/A,,Clear,360,2014-03-13 03:53:00
9:53 PM,61.0,33.1,35,30.00,10.0,North,5.8,-,N/A,,Clear,350,2014-03-13 04:53:00
10:53 PM,55.9,36.0,47,30.01,10.0,Calm,Calm,-,N/A,,Clear,0,2014-03-13 05:53:00
11:53 PM,53.1,37.9,57,30.02,10.0,West,5.8,-,N/A,,Clear,270,2014-03-13 06:53:00